User: anonymous   Login
Location: Unspecified
(0.0000°N, 0.0000°E)
Time: 08:33:45
(UTC+02:00)
Language:

SWIFT - Orbit

View from above orbital plane
View from above orbital plane
View from above satellite
View from above satellite

Ground track
Ground track

The orbit data is extracted from the following two-line orbital elements,

1 28485U 04047A   15109.74519068  .00005628  00000-0  39081-3 0  9993
2 28485 020.5568 246.5516 0012006 001.0590 358.9868 15.01437407569287
Epoch (UTC): 19 April 2015 17:53:04
Eccentricity: 0.0012006
inclination: 20.5568°
perigee height: 554 km
apogee height: 571 km
right ascension of ascending node: 246.5516°
argument of perigee: 1.0590°
revolutions per day: 15.01437407
mean anomaly at epoch: 358.9868°
orbit number at epoch: 56928

The dashed part of the orbit path shows where the satellite is in the earth's shadow,  

DLR